Погода в Итагуаи

Бразилия     22°52′09″S   43°47′17″W
темп.,
°C
ветер,
м/с
пор.,
м/с
влажн.,
%
обл.,
%
осадки,
мм/ч
давл.,
гПа
погр.,
м
27 февраля, сб
сб2700:00+21юз1199100 22.9 101546
03:00+20ссз1199100 25.1 101433
06:00+20с1199100 0.8 101467
09:00+22с1294100 1.4 1016211
12:00+24ссв0188100 0.7 1016250
15:00+26ю1286100 2.8 1014342
18:00+23юз1294100 1.6 101463
21:00+22сз0194100 1.6 101523
28 февраля, вс
вс2800:00+21сз1195100 0.0 101523
03:00+20сз2296100 0.0 101330
06:00+20сз2296100 0.0 101438
09:00+25с2678100 0.0 1015614
12:00+29с365799 0.0 10151397
15:00+30с365793 0.0 10121138
18:00+25ююз117882 0.1 101233
21:00+22сз228390 0.1 101430
1 марта, пн
пн100:00+21сз228896 0.1 101445
03:00+20сз229185 0.1 101351
06:00+19ссз229212 0.0 101457
09:00+26с377016 0.0 1015938
12:00+30с356045 0.0 10141316
15:00+31ссв345550 0.0 10111477
18:00+26сз227778 0.2 101132
21:00+23сз228779 0.3 101426
2 марта, вт
вт200:00+22сз229128 0.0 101450
03:00+21сз239337 0.0 101384
06:00+20сз239261 0.0 101474
09:00+26ссз377375 0.0 1015647
12:00+30с575932 0.0 10141219
15:00+31ссв356141 0.1 10121193
18:00+26ссз1282100 0.4 101245
21:00+23зсз1289100 0.4 101525
3 марта, ср
ср300:00+22сз2389100 0.0 101547
03:00+21сз238899 0.0 101481
06:00+20ссз239097 0.0 101587
09:00+26ссз377196 0.0 1017536
12:00+32ссз255176 0.0 10161699
15:00+28ююз457660 1.2 1014520
18:00+23ю249260 2.5 1014149
21:00+22сз129380 2.8 101628